Regional Weather Roundup
Issued by NWS

Home | Current Version | Previous Version | Graphics & Text | Print | Product List | Glossary On
Versions: 1 2 3 4 5 6 7 8 9 10 11 12 13 14 15 16 17 18 19 20 21 22 23 24 25 26 27 28 29 30 31 32 33 34 35 36 37 38 39 40 41 42 43 44 45 46 47 48 49 50
000
ASUS43 KTOP 252108
RWRKS

WEATHER ROUNDUP FOR KANSAS
NATIONAL WEATHER SERVICE GOODLAND KS
400 PM CDT MON JUL 25 2016

NOTE:  "FAIR" INDICATES FEW OR NO CLOUDS BELOW 12,000 FEET WITH NO
SIGNIFICANT WEATHER AND/OR OBSTRUCTIONS TO VISIBILITY.

KSZ001>006-013>018-027>032-041>047-252200-
NORTHWEST KANSAS

CITY           SKY/WX    TMP DP  RH WIND       PRES   REMARKS
GOODLAND       MOSUNNY   84  63  49 S16       30.15F
HAYS           MOSUNNY   84  63  48 E6        30.08F
HILL CITY      MOSUNNY   87  67  51 E7        30.09F
RUSSELL        MOSUNNY   84  69  60 E9        30.07F
$$

KSZ061>065-074>080-084>089-252200-
SOUTHWEST KANSAS

CITY           SKY/WX    TMP DP  RH WIND       PRES   REMARKS
DODGE CITY     SUNNY     86  65  49 E8        30.08F
ELKHART          N/A     86  67  53 E12         N/A
GARDEN CITY    MOSUNNY   82  66  58 SE8       30.10F
GREAT BEND     MOSUNNY   84  66  54 NE7       30.06F
LIBERAL        SUNNY     84  66  54 E6        30.11F
PRATT          MOSUNNY   82  66  58 E7        30.06S
$$

KSZ066>073-081>083-090>101-252200-
SOUTHEAST KANSAS

CITY           SKY/WX    TMP DP  RH WIND       PRES   REMARKS
CHANUTE        CLOUDY    84  73  69 NW9       30.01R
COFFEYVILLE    CLOUDY    88  71  57 S7        29.96F
HUTCHINSON     CLOUDY    83  69  62 VRB3      30.06F
MEDICINE LODGE   N/A     90  67  46 SE8       30.00F
NEWTON         CLOUDY    76  71  85 N9        30.07S
PARSONS          N/A    N/A N/A N/A MISG      30.01R
WICHITA INTL   PTSUNNY   88  69  53 VRB5      30.02F
WICHITA JABRA  MOSUNNY   87  71  58 VRB6      30.02F
WICHITA MCCONL MOSUNNY   88  68  52 E6        30.02F
WINFIELD       PTSUNNY   86  69  56 VRB7      30.00F
$$

KSZ007>012-019>026-033>040-048>060-102>105-252200-
NORTHEAST KANSAS

CITY           SKY/WX    TMP DP  RH WIND       PRES   REMARKS
CONCORDIA      SUNNY     84  66  54 E8        30.07F
EMPORIA        CLOUDY    78  71  79 VRB6      30.05F
LAWRENCE       CLOUDY    83  73  72 N5        30.02R
MANHATTAN      CLOUDY    80  69  69 N5        30.06S
MARYSVILLE     CLOUDY    88  61  40 NE7       30.06F
OLATHE IND     CLOUDY    82  71  69 NE7       30.04R
OLATHE EXE     CLOUDY    81  70  69 E10       30.03R
SALINA         CLOUDY    87  70  56 NE9       30.06F
TOPEKA BILLARD   N/A     83  71  67 N5        30.04S
TOPEKA FORBES  CLOUDY    81  72  74 N7        30.05S
$$




USA.gov is the U.S. government's official web portal to all federal, state and local government web resources and services.